SCP
-0 -0 -0 -0 -0 -0 -0 -0 -0 -0 0 -0 -0 -0 -0 0 0 0 0 0 0 0 0 0 0 0 0 0 0 0 0 0
-1 0 -0 -0 -0 0 0 0 0 0 -0 -0 -0 -0 -0 0 0 0 0 0 0 0 0 0 0 0 0 0 0 0 0 0
0 -0 0 -0 -0 -0 -0 -0 -0 -0 0 0 -0 -0 0 0 0 0 0 0 0 0 0 0 0 0 0 0 0 0 0 0
0 -0 -0 -0 -0 0 -0 -0 -0 -0 -0 0 0 0 0 0 0 0 0 0 0 0 0 0 0 0 0 0 0 0 0 0
0 0 -0 -0 -0 -0 -0 -0 -0 -0 0 0 0 0 0 0 0 0 0 0 0 0 0 0 0 0 0 0 0 0 0 0
-0 0 0 -0 -0 -0 -0 -0 -0 -0 0 0 0 0 0 0 0 0 0 0 0 0 0 0 0 0 0 0 0 0 0 0
-0 0 -0 0 -0 -0 -0 -0 -0 0 0 0 0 0 0 0 0 0 0 0 0 0 0 0 0 0 0 0 0 0 0 0
-0 -0 0 0 0 -0 0 0 0 0 0 0 0 0 0 0 0 0 0 0 0 0 0 0 0 0 0 0 0 0 0 0
-0 -0 0 0 0 -0 -0 -0 0 0 0 0 0 0 0 0 0 0 0 0 0 0 0 0 0 0 0 0 0 0 0 0
-0 0 0 0 0 0 0 0 0 0 0 0 0 0 0 0 0 0 0 0 0 0 0 0 -0 -0 -0 0 0 0 0 0
-0 0 0 0 0 -0 -0 0 0 0 0 0 0 0 0 0 0 0 0 0 0 0 0 -0 -0 -0 0 0 0 0 0 0
-0 0 -0 -0 -0 0 0 0 0 0 0 0 0 0 0 0 0 0 0 0 0 0 0 -0 -0 0 0 0 0 0 0 0
0 -0 0 0 0 0 0 0 0 0 0 0 0 0 0 0 0 0 0 0 0 0 -0 -0 -0 0 0 0 0 0 0 0
0 0 0 0 0 0 0 0 0 0 0 0 0 0 0 0 0 0 0 0 0 0 -0 -0 0 0 0 0 0 0 0 0
0 0 0 0 0 0 0 0 0 0 0 0 0 0 0 0 0 0 0 0 0 0 0 0 0 0 0 0 0 0 0 0
0 0 0 0 0 0 0 0 0 0 0 0 0 0 0 0 0 0 0 0 0 0 0 0 0 0 0 0 0 0 0 0
-0 0 0 0 0 0 0 0 0 0 0 0 0 0 0 0 0 0 0 0 0 0 0 0 0 0 0 0 0 0 0 0
0 0 0 0 0 0 0 0 0 0 0 0 0 0 0 0 0 0 0 0 0 0 0 0 0 0 0 0 0 0 0 0
0 0 0 0 0 0 0 0 0 0 0 0 0 0 0 0 0 0 0 0 0 0 0 0 0 0 0 0 0 0 0 0
0 0 1 1 1 1 0 0 1 0 0 1 0 0 0 0 0 0 0 0 0 0 0 0 0 0 0 0 0 0 0 0
Wind_Speed_500mb
44 43 43 31 31 30 30 25 25 25 22 17 15 11 11 6 2 4 6 8 9 8 5 5 3 9 10 6 9 13 15 16
46 51 50 44 35 31 23 24 25 27 21 14 14 13 10 4 6 4 7 6 9 9 9 7 5 4 11 6 10 11 8 10
34 37 49 52 41 35 29 28 32 28 21 17 16 16 10 6 5 9 12 12 13 14 15 12 6 2 7 9 6 9 12 7
39 36 47 57 49 44 33 31 31 28 21 22 18 18 14 10 7 8 13 18 19 20 14 8 6 1 8 8 7 5 3 12
42 37 49 51 53 50 44 37 30 28 25 25 23 21 18 18 13 10 16 20 21 20 17 14 10 8 10 15 11 17 9 5
33 37 39 49 54 51 43 41 36 37 35 33 33 27 25 22 19 19 21 21 24 23 19 16 13 10 8 20 16 18 18 15
39 34 30 49 54 54 49 41 33 33 34 37 36 34 30 25 24 20 22 23 24 24 24 21 16 12 19 16 19 11 16 24
26 42 26 44 53 62 53 40 35 33 39 38 38 37 32 29 28 28 28 28 22 22 25 25 23 20 11 20 22 17 14 18
22 30 33 39 57 60 53 42 44 39 33 42 43 41 39 37 33 28 30 24 20 20 22 18 17 28 16 23 22 22 22 24
22 40 39 40 60 60 56 49 47 42 39 40 37 40 41 39 31 31 29 26 23 18 20 22 25 17 19 20 24 26 28 29
32 37 46 45 64 62 56 48 43 39 37 34 34 30 32 30 30 30 27 26 25 20 23 19 17 15 14 17 21 23 30 27
30 30 35 44 56 59 52 46 40 42 36 33 34 31 25 26 27 25 24 26 23 28 28 29 22 19 15 18 19 19 25 27
26 22 22 32 43 42 45 44 40 43 34 32 36 34 30 26 22 24 23 20 21 30 29 31 28 27 22 18 19 18 19 28
28 26 33 41 46 54 48 50 33 34 35 35 35 29 23 21 21 21 20 16 18 28 34 37 31 26 26 23 22 22 22 23
32 31 39 44 49 47 49 50 37 34 34 34 29 23 19 18 21 21 19 20 18 19 29 32 30 29 28 23 23 23 24 26
38 32 31 34 43 46 46 40 33 31 30 28 26 21 18 14 16 16 15 17 13 18 26 31 34 33 31 26 25 23 22 23
47 38 32 32 35 36 32 30 27 26 24 25 23 19 15 12 15 16 15 15 13 16 20 26 30 33 33 29 26 25 27 22
46 42 39 35 31 30 33 31 25 20 21 20 18 17 15 17 19 20 20 20 22 22 21 22 27 27 28 27 30 28 27 26
51 48 41 37 33 34 36 31 20 18 18 20 16 15 18 22 27 23 25 26 26 29 30 31 30 32 30 30 31 32 33 28
57 55 43 42 43 38 38 34 26 25 22 21 22 22 22 26 25 27 28 34 34 38 36 36 38 37 36 37 33 35 35 36
Wind_Direction_500mb
202 208 204 203 186 183 190 197 192 183 175 174 179 180 183 180 206 108 51 30 31 28 41 7 358 92 68 87 81 78 91 98
201 206 210 205 197 190 187 196 196 177 176 178 193 184 191 244 252 358 356 357 1 349 327 324 277 93 88 142 98 79 55 83
205 218 211 209 206 196 186 183 177 176 176 191 195 192 201 213 242 334 334 328 326 317 304 289 263 229 117 147 111 66 48 45
205 218 222 215 213 198 192 188 190 192 192 201 205 214 214 228 257 306 320 307 302 300 295 267 268 281 177 163 185 235 93 43
204 219 231 236 219 206 196 195 192 202 207 209 220 223 234 238 240 266 296 294 290 287 268 258 256 275 278 226 207 200 191 139
232 217 232 247 228 212 204 205 200 201 210 215 225 233 230 234 239 274 286 288 294 282 259 247 235 261 272 217 217 191 217 220
214 217 247 232 220 212 211 215 209 215 216 220 220 220 225 229 257 266 280 290 287 277 260 253 244 237 273 228 215 225 226 220
232 218 223 220 210 202 212 212 218 222 223 217 213 219 229 246 256 265 282 284 273 277 268 264 266 253 235 231 225 234 211 219
232 215 209 215 207 204 207 224 219 229 236 233 229 239 254 258 259 264 287 283 274 274 277 267 254 274 216 220 223 237 237 236
222 217 215 210 207 202 210 216 227 234 254 252 248 254 252 251 254 271 284 285 270 268 267 249 281 215 215 232 237 238 241 241
207 220 216 216 208 209 216 230 236 253 269 263 268 262 261 267 265 267 278 286 264 245 248 238 250 234 230 241 254 248 238 229
209 204 212 219 211 217 229 235 241 250 251 258 262 272 281 265 267 255 273 286 257 222 241 231 248 265 270 246 254 250 228 226
190 209 210 214 211 218 223 229 242 239 243 253 260 270 267 273 251 257 271 283 243 215 228 228 247 266 260 241 248 251 232 230
185 189 205 208 207 212 220 219 238 231 239 245 255 261 274 257 265 270 271 288 241 215 222 224 240 238 247 245 244 247 241 241
192 191 189 201 201 208 216 224 233 233 236 243 242 257 270 271 284 299 286 299 255 243 230 227 230 237 244 247 247 252 249 251
198 186 176 183 196 206 215 224 224 222 223 224 237 251 252 276 303 298 292 304 271 242 239 233 234 245 251 254 250 250 247 240
190 177 179 184 192 198 201 203 208 215 219 220 221 234 249 271 291 290 283 282 285 256 246 244 245 252 256 253 254 249 249 241
197 191 192 191 191 192 196 203 211 218 219 222 232 244 248 257 268 277 277 271 267 266 263 256 253 255 255 253 251 246 250 247
211 207 207 208 205 205 210 213 219 243 247 239 239 251 263 263 269 267 270 269 271 270 268 268 264 262 256 257 251 248 256 252
228 221 215 220 221 225 228 230 243 259 259 250 258 265 264 267 270 273 269 282 287 272 267 264 266 268 267 260 259 258 261 259
Wind_Speed_850mb
44 43 43 31 31 30 30 25 25 25 22 17 15 11 11 6 2 4 6 8 9 8 5 5 3 9 10 6 9 13 15 16
46 51 50 44 35 31 23 24 25 27 21 14 14 13 10 4 6 4 7 6 9 9 9 7 5 4 11 6 10 11 8 10
34 37 49 52 41 35 29 28 32 28 21 17 16 16 10 6 5 9 12 12 13 14 15 12 6 2 7 9 6 9 12 7
39 36 47 57 49 44 33 31 31 28 21 22 18 18 14 10 7 8 13 18 19 20 14 8 6 1 8 8 7 5 3 12
42 37 49 51 53 50 44 37 30 28 25 25 23 21 18 18 13 10 16 20 21 20 17 14 10 8 10 15 11 17 9 5
33 37 39 49 54 51 43 41 36 37 35 33 33 27 25 22 19 19 21 21 24 23 19 16 13 10 8 20 16 18 18 15
39 34 30 49 54 54 49 41 33 33 34 37 36 34 30 25 24 20 22 23 24 24 24 21 16 12 19 16 19 11 16 24
26 42 26 44 53 62 53 40 35 33 39 38 38 37 32 29 28 28 28 28 22 22 25 25 23 20 11 20 22 17 14 18
22 30 33 39 57 60 53 42 44 39 33 42 43 41 39 37 33 28 30 24 20 20 22 18 17 28 16 23 22 22 22 24
22 40 39 40 60 60 56 49 47 42 39 40 37 40 41 39 31 31 29 26 23 18 20 22 25 17 19 20 24 26 28 29
32 37 46 45 64 62 56 48 43 39 37 34 34 30 32 30 30 30 27 26 25 20 23 19 17 15 14 17 21 23 30 27
30 30 35 44 56 59 52 46 40 42 36 33 34 31 25 26 27 25 24 26 23 28 28 29 22 19 15 18 19 19 25 27
26 22 22 32 43 42 45 44 40 43 34 32 36 34 30 26 22 24 23 20 21 30 29 31 28 27 22 18 19 18 19 28
28 26 33 41 46 54 48 50 33 34 35 35 35 29 23 21 21 21 20 16 18 28 34 37 31 26 26 23 22 22 22 23
32 31 39 44 49 47 49 50 37 34 34 34 29 23 19 18 21 21 19 20 18 19 29 32 30 29 28 23 23 23 24 26
38 32 31 34 43 46 46 40 33 31 30 28 26 21 18 14 16 16 15 17 13 18 26 31 34 33 31 26 25 23 22 23
47 38 32 32 35 36 32 30 27 26 24 25 23 19 15 12 15 16 15 15 13 16 20 26 30 33 33 29 26 25 27 22
46 42 39 35 31 30 33 31 25 20 21 20 18 17 15 17 19 20 20 20 22 22 21 22 27 27 28 27 30 28 27 26
51 48 41 37 33 34 36 31 20 18 18 20 16 15 18 22 27 23 25 26 26 29 30 31 30 32 30 30 31 32 33 28
57 55 43 42 43 38 38 34 26 25 22 21 22 22 22 26 25 27 28 34 34 38 36 36 38 37 36 37 33 35 35 36
Wind_Direction_850mb
202 208 204 203 186 183 190 197 192 183 175 174 179 180 183 180 206 108 51 30 31 28 41 7 358 92 68 87 81 78 91 98
201 206 210 205 197 190 187 196 196 177 176 178 193 184 191 244 252 358 356 357 1 349 327 324 277 93 88 142 98 79 55 83
205 218 211 209 206 196 186 183 177 176 176 191 195 192 201 213 242 334 334 328 326 317 304 289 263 229 117 147 111 66 48 45
205 218 222 215 213 198 192 188 190 192 192 201 205 214 214 228 257 306 320 307 302 300 295 267 268 281 177 163 185 235 93 43
204 219 231 236 219 206 196 195 192 202 207 209 220 223 234 238 240 266 296 294 290 287 268 258 256 275 278 226 207 200 191 139
232 217 232 247 228 212 204 205 200 201 210 215 225 233 230 234 239 274 286 288 294 282 259 247 235 261 272 217 217 191 217 220
214 217 247 232 220 212 211 215 209 215 216 220 220 220 225 229 257 266 280 290 287 277 260 253 244 237 273 228 215 225 226 220
232 218 223 220 210 202 212 212 218 222 223 217 213 219 229 246 256 265 282 284 273 277 268 264 266 253 235 231 225 234 211 219
232 215 209 215 207 204 207 224 219 229 236 233 229 239 254 258 259 264 287 283 274 274 277 267 254 274 216 220 223 237 237 236
222 217 215 210 207 202 210 216 227 234 254 252 248 254 252 251 254 271 284 285 270 268 267 249 281 215 215 232 237 238 241 241
207 220 216 216 208 209 216 230 236 253 269 263 268 262 261 267 265 267 278 286 264 245 248 238 250 234 230 241 254 248 238 229
209 204 212 219 211 217 229 235 241 250 251 258 262 272 281 265 267 255 273 286 257 222 241 231 248 265 270 246 254 250 228 226
190 209 210 214 211 218 223 229 242 239 243 253 260 270 267 273 251 257 271 283 243 215 228 228 247 266 260 241 248 251 232 230
185 189 205 208 207 212 220 219 238 231 239 245 255 261 274 257 265 270 271 288 241 215 222 224 240 238 247 245 244 247 241 241
192 191 189 201 201 208 216 224 233 233 236 243 242 257 270 271 284 299 286 299 255 243 230 227 230 237 244 247 247 252 249 251
198 186 176 183 196 206 215 224 224 222 223 224 237 251 252 276 303 298 292 304 271 242 239 233 234 245 251 254 250 250 247 240
190 177 179 184 192 198 201 203 208 215 219 220 221 234 249 271 291 290 283 282 285 256 246 244 245 252 256 253 254 249 249 241
197 191 192 191 191 192 196 203 211 218 219 222 232 244 248 257 268 277 277 271 267 266 263 256 253 255 255 253 251 246 250 247
211 207 207 208 205 205 210 213 219 243 247 239 239 251 263 263 269 267 270 269 271 270 268 268 264 262 256 257 251 248 256 252
228 221 215 220 221 225 228 230 243 259 259 250 258 265 264 267 270 273 269 282 287 272 267 264 266 268 267 260 259 258 261 259